Location: Atherton
(17.2661°S, 145.4859°E)
Time: 23:40:16
(UTC+10:00)

BlueWalker 3 - Pass Details

Date: 23 April 2026
Orbit: 447 x 458 km, 53.2° (Epoch: 11 May)

Event Time Altitude Azimuth Distance (km) Brightness Sun altitude
Rises 18:45:24 0° 313° (NW) 2,461 6.5 -10.5°
Reaches altitude 10° 18:47:34 10° 307° (NW) 1,593 5.6 -11.0°
Maximum altitude 18:51:02 45° 232° (SW) 633 2.8 -11.8°
Drops below altitude 10° 18:54:31 10° 158° (SSE) 1,607 4.2 -12.6°
Enters shadow 18:55:11 - 155° (SSE) 1,870 4.5 -12.8°
